Location: Chèvreville
(49.1099°N, 2.8495°E)
Time: 14:20:29
(UTC+00:00)

SO-50 - Pass Details

Date: 11 December 2023
Orbit: 608 x 661 km, 64.6° (Epoch: 28 February)

Event Time Altitude Azimuth Distance (km) Brightness Sun altitude
Exits shadow 05:31:07 12° 349° (N) 1,908 ? -18.8°
Maximum altitude 05:31:25 12° 353° (N) 1,903 ? -18.8°
Drops below altitude 10° 05:33:14 10° 17° (NNE) 2,032 ? -18.5°
Sets 05:37:00 0° 48° (NE) 2,926 ? -17.9°
